Location: Observatoire
(46.1952°N, 5.3391°E)
Time: 17:29:55
(UTC+01:00)

Injun/Solrad 3 - Pass Details

Date: 17 February 2026
Orbit: 872 x 984 km, 66.8° (Epoch: 8 March)

Event Time Altitude Azimuth Distance (km) Brightness Sun altitude
Rises 19:04:02 0° 329° (NNW) 3,551 11.3 -10.4°
Reaches altitude 10° 19:06:56 10° 342° (NNW) 2,625 10.4 -10.9°
Maximum altitude 19:12:06 28° 39° (NE) 1,705 8.9 -11.8°
Enters shadow 19:15:44 17° 86° (E) 2,233 9.2 -12.5°
